| time (UTC) | temp F | wind direction | speed MPH | gust MPH | rain 1hr in | rain 24hr in | rain mn in | humidity % | barometer mb |
| 20260504174015 | 74 | 68 | 1.0 | 4.0 | 0.00 | 0.00 | 0.00 | 45 | 1010.0 |
| 20260504173037 | 73 | 68 | 1.0 | 4.0 | 0.00 | 0.00 | 0.00 | 47 | 1010.1 |
| 20260504172015 | 72 | 68 | 1.0 | 3.0 | 0.00 | 0.00 | 0.00 | 47 | 1010.1 |
| 20260504171017 | 71 | 68 | 1.0 | 4.0 | 0.00 | 0.00 | 0.00 | 49 | 1010.1 |
| 20260504151035 | 62 | 0.0 | 1.0 | 0.00 | 0.00 | 0.00 | 66 | 1009.9 | |
| 20260504141015 | 55 | 0.0 | 0.0 | 0.00 | 0.00 | 0.00 | 79 | 1009.3 | |
| 20260504081039 | 57 | 0.0 | 0.0 | 0.00 | 0.00 | 0.00 | 71 | 1008.5 | |
| 20260504050019 | 64 | 0.0 | 0.0 | 0.00 | 0.00 | 0.00 | 55 | 1009.0 | |
| 20260504045037 | 64 | 0.0 | 0.0 | 0.00 | 0.00 | 0.00 | 56 | 1009.1 | |
| 20260504044017 | 64 | 0.0 | 0.0 | 0.00 | 0.00 | 0.00 | 56 | 1009.1 | |
| 20260504043019 | 65 | 0.0 | 0.0 | 0.00 | 0.00 | 0.00 | 52 | 1009.1 | |
| 20260504042037 | 66 | 0.0 | 0.0 | 0.00 | 0.00 | 0.00 | 51 | 1009.0 | |
| 20260504041038 | 66 | 0.0 | 0.0 | 0.00 | 0.00 | 0.00 | 49 | 1009.0 | |
| 20260504040018 | 66 | 0.0 | 0.0 | 0.00 | 0.00 | 0.00 | 49 | 1009.0 | |
| 20260504035100 | 67 | 0.0 | 0.0 | 0.00 | 0.00 | 0.00 | 49 | 1008.9 | |
| 20260504034017 | 68 | 0.0 | 0.0 | 0.00 | 0.00 | 0.00 | 48 | 1008.9 | |
| 20260504033017 | 68 | 0.0 | 0.0 | 0.00 | 0.00 | 0.00 | 47 | 1008.9 | |
| 20260504032017 | 68 | 0.0 | 0.0 | 0.00 | 0.00 | 0.00 | 47 | 1009.0 | |
| 20260504031017 | 69 | 0.0 | 0.0 | 0.00 | 0.00 | 0.00 | 47 | 1009.0 | |
| 20260504030017 | 70 | 0.0 | 0.0 | 0.00 | 0.00 | 0.00 | 45 | 1009.0 | |
| 20260504025017 | 71 | 0.0 | 0.0 | 0.00 | 0.00 | 0.00 | 44 | 1009.0 | |
| 20260504024018 | 72 | 0.0 | 1.0 | 0.00 | 0.00 | 0.00 | 43 | 1008.9 | |
| 20260504023159 | 73 | 0.0 | 3.0 | 0.00 | 0.00 | 0.00 | 42 | 1008.9 | |
| 20260504022017 | 74 | 225 | 1.0 | 5.0 | 0.00 | 0.00 | 0.00 | 40 | 1009.1 |
| 20260504021037 | 75 | 225 | 1.0 | 5.0 | 0.00 | 0.00 | 0.00 | 40 | 1009.2 |
| 20260504020019 | 77 | 0.0 | 2.0 | 0.00 | 0.00 | 0.00 | 39 | 1009.2 | |
| 20260504015017 | 77 | 0.0 | 1.0 | 0.00 | 0.00 | 0.00 | 39 | 1009.2 | |
| 20260504014018 | 78 | 0.0 | 0.0 | 0.00 | 0.00 | 0.00 | 36 | 1009.3 | |
| 20260504013017 | 78 | 68 | 1.0 | 4.0 | 0.00 | 0.00 | 0.00 | 32 | 1009.3 |
| 20260504012018 | 78 | 68 | 2.0 | 6.0 | 0.00 | 0.00 | 0.00 | 31 | 1009.4 |
| 20260504011017 | 79 | 68 | 2.0 | 7.0 | 0.00 | 0.00 | 0.00 | 30 | 1009.6 |
| 20260504010017 | 79 | 90 | 3.0 | 7.0 | 0.00 | 0.00 | 0.00 | 31 | 1009.7 |
| 20260504005019 | 78 | 68 | 3.0 | 8.0 | 0.00 | 0.00 | 0.00 | 31 | 1009.7 |
| 20260504004037 | 78 | 68 | 2.0 | 5.0 | 0.00 | 0.00 | 0.00 | 31 | 1009.9 |
| 20260504003017 | 79 | 68 | 2.0 | 8.0 | 0.00 | 0.00 | 0.00 | 31 | 1010.0 |
| 20260504002018 | 79 | 68 | 3.0 | 8.0 | 0.00 | 0.00 | 0.00 | 32 | 1010.1 |
| 20260504001018 | 79 | 68 | 3.0 | 7.0 | 0.00 | 0.00 | 0.00 | 31 | 1010.2 |
| 20260504000018 | 79 | 68 | 2.0 | 6.0 | 0.00 | 0.00 | 0.00 | 32 | 1010.3 |
| 20260503235017 | 78 | 68 | 2.0 | 8.0 | 0.00 | 0.00 | 0.00 | 31 | 1010.4 |
| 20260503234015 | 78 | 45 | 3.0 | 8.0 | 0.00 | 0.00 | 0.00 | 32 | 1010.6 |
| 20260503233017 | 78 | 68 | 3.0 | 10.0 | 0.00 | 0.00 | 0.00 | 32 | 1010.7 |
| 20260503232017 | 78 | 90 | 4.0 | 9.0 | 0.00 | 0.00 | 0.00 | 32 | 1010.8 |
| 20260503231017 | 78 | 23 | 3.0 | 7.0 | 0.00 | 0.00 | 0.00 | 32 | 1010.9 |
| 20260503230016 | 77 | 68 | 4.0 | 11.0 | 0.00 | 0.00 | 0.00 | 33 | 1010.9 |
| 20260503225017 | 77 | 68 | 4.0 | 10.0 | 0.00 | 0.00 | 0.00 | 34 | 1011.1 |
| 20260503224016 | 77 | 45 | 3.0 | 8.0 | 0.00 | 0.00 | 0.00 | 34 | 1011.2 |
| 20260503223016 | 77 | 68 | 4.0 | 11.0 | 0.00 | 0.00 | 0.00 | 34 | 1011.3 |
| 20260503222017 | 77 | 68 | 4.0 | 10.0 | 0.00 | 0.00 | 0.00 | 34 | 1011.5 |
| 20260503221015 | 77 | 45 | 3.0 | 9.0 | 0.00 | 0.00 | 0.00 | 34 | 1011.6 |
| 20260503220015 | 76 | 23 | 5.0 | 12.0 | 0.00 | 0.00 | 0.00 | 36 | 1011.6 |
| 20260503215015 | 77 | 90 | 4.0 | 11.0 | 0.00 | 0.00 | 0.00 | 35 | 1011.8 |
| 20260503214017 | 77 | 90 | 4.0 | 10.0 | 0.00 | 0.00 | 0.00 | 36 | 1011.8 |
| 20260503213015 | 76 | 0 | 4.0 | 11.0 | 0.00 | 0.00 | 0.00 | 37 | 1012.0 |
| 20260503212015 | 75 | 45 | 3.0 | 8.0 | 0.00 | 0.00 | 0.00 | 39 | 1012.1 |
| 20260503211016 | 74 | 0 | 4.0 | 12.0 | 0.00 | 0.00 | 0.00 | 39 | 1012.2 |
| 20260503210015 | 74 | 68 | 4.0 | 10.0 | 0.00 | 0.00 | 0.00 | 42 | 1012.4 |
| 20260503205057 | 73 | 45 | 4.0 | 9.0 | 0.00 | 0.00 | 0.00 | 42 | 1012.5 |
| 20260503204015 | 73 | 90 | 4.0 | 11.0 | 0.00 | 0.00 | 0.00 | 41 | 1012.7 |
| 20260503203015 | 73 | 68 | 5.0 | 13.0 | 0.00 | 0.00 | 0.00 | 42 | 1012.7 |
| 20260503202016 | 73 | 68 | 4.0 | 13.0 | 0.00 | 0.00 | 0.00 | 43 | 1012.9 |
| 20260503201015 | 73 | 68 | 4.0 | 11.0 | 0.00 | 0.00 | 0.00 | 44 | 1013.0 |
| 20260503200015 | 72 | 68 | 4.0 | 14.0 | 0.00 | 0.00 | 0.00 | 45 | 1013.2 |
| 20260503195038 | 72 | 90 | 4.0 | 14.0 | 0.00 | 0.00 | 0.00 | 44 | 1013.2 |
| 20260503194016 | 72 | 68 | 4.0 | 10.0 | 0.00 | 0.00 | 0.00 | 46 | 1013.2 |
| 20260503193015 | 72 | 68 | 5.0 | 11.0 | 0.00 | 0.00 | 0.00 | 44 | 1013.2 |
| 20260503192017 | 71 | 90 | 4.0 | 13.0 | 0.00 | 0.00 | 0.00 | 47 | 1013.2 |
| 20260503191036 | 71 | 68 | 5.0 | 10.0 | 0.00 | 0.00 | 0.00 | 45 | 1013.4 |
| 20260503190016 | 70 | 68 | 5.0 | 10.0 | 0.00 | 0.00 | 0.00 | 46 | 1013.5 |
| 20260503185017 | 70 | 68 | 5.0 | 11.0 | 0.00 | 0.00 | 0.00 | 45 | 1013.6 |
| 20260503184015 | 70 | 90 | 4.0 | 10.0 | 0.00 | 0.00 | 0.00 | 45 | 1013.8 |
| 20260503183015 | 70 | 68 | 4.0 | 11.0 | 0.00 | 0.00 | 0.00 | 45 | 1013.9 |
| 20260503182017 | 70 | 68 | 3.0 | 9.0 | 0.00 | 0.00 | 0.00 | 48 | 1013.9 |
| 20260503181017 | 70 | 90 | 4.0 | 9.0 | 0.00 | 0.00 | 0.00 | 47 | 1014.0 |
| 20260503180015 | 69 | 68 | 4.0 | 13.0 | 0.00 | 0.00 | 0.00 | 48 | 1014.0 |
| 20260503175015 | 69 | 68 | 4.0 | 9.0 | 0.00 | 0.00 | 0.00 | 48 | 1014.1 |